When you browse on this site, cookies collect data to enhance your experience and personalize the content and advertising you see.
Visit our Privacy Policy to learn more. By continuing to use the site, you agree to this use of cookies and data.
  • In Romania
  • List of Countries
  • For 7 days
  • Water Temperature
  • Satellite Maps
  • Weather Map
  • Weather Widgets
  • user-avatar
    Login

    Hourly Weather Caracas

    Today, 18 April, Thursday

    Time Temperature Precipitation Wind Pressure Humidity
    00:00 +18°C° 0.1 mm 3 mps 649 mmHg 93%
    01:00 +18°C° 0.1 mm 3 mps 649 mmHg 93%
    02:00 +17°C° 0 mm 3 mps 648 mmHg 93%
    03:00 +17°C° 0.3 mm 3 mps 648 mmHg 93%
    04:00 +17°C° 0.3 mm 3 mps 648 mmHg 93%
    05:00 +17°C° 0.3 mm 3 mps 648 mmHg 93%
    06:00 +18°C° 0.3 mm 3 mps 649 mmHg 92%
    07:00 +18°C° 0.3 mm 3 mps 649 mmHg 91%
    08:00 +18°C° 0 mm 3 mps 650 mmHg 88%
    09:00 +19°C° 0.1 mm 3 mps 650 mmHg 87%
    10:00 +19°C° 0.1 mm 3 mps 650 mmHg 86%
    11:00 +19°C° 0.1 mm 3 mps 650 mmHg 85%
    12:00 +20°C° 0.2 mm 3 mps 650 mmHg 83%
    13:00 +21°C° 0.2 mm 3 mps 650 mmHg 80%
    14:00 +21°C° 0.2 mm 3 mps 649 mmHg 78%
    15:00 +21°C° 0.4 mm 3 mps 649 mmHg 80%
    16:00 +21°C° 0.4 mm 3 mps 648 mmHg 81%
    17:00 +20°C° 0.4 mm 3 mps 648 mmHg 82%
    18:00 +20°C° 0.1 mm 3 mps 648 mmHg 86%
    19:00 +19°C° 0.1 mm 3 mps 648 mmHg 89%
    20:00 +18°C° 0.1 mm 3 mps 648 mmHg 92%
    21:00 +18°C° 0.1 mm 3 mps 649 mmHg 92%
    22:00 +18°C° 0.1 mm 3 mps 649 mmHg 93%
    23:00 +18°C° 0.1 mm 3 mps 650 mmHg 93%

    Tomorrow, 19 April, Friday

    Time Temperature Precipitation Wind Pressure Humidity
    00:00 +18°C° 0.1 mm 3 mps 649 mmHg 93%
    01:00 +18°C° 0.1 mm 3 mps 649 mmHg 93%
    02:00 +17°C° 0.1 mm 3 mps 649 mmHg 93%
    03:00 +17°C° 0.1 mm 3 mps 649 mmHg 93%
    04:00 +17°C° 0.1 mm 3 mps 648 mmHg 93%
    05:00 +17°C° 0.1 mm 3 mps 648 mmHg 93%
    06:00 +17°C° 0 mm 3 mps 649 mmHg 92%
    07:00 +18°C° 0 mm 3 mps 649 mmHg 90%
    08:00 +18°C° 0 mm 3 mps 650 mmHg 89%
    09:00 +19°C° 0 mm 3 mps 650 mmHg 84%
    10:00 +20°C° 0 mm 3 mps 651 mmHg 80%
    11:00 +21°C° 0 mm 3 mps 651 mmHg 75%
    12:00 +22°C° 0.4 mm 3 mps 651 mmHg 73%
    13:00 +23°C° 0.4 mm 4 mps 650 mmHg 71%
    14:00 +23°C° 0.4 mm 4 mps 650 mmHg 69%
    15:00 +23°C° 0.7 mm 4 mps 649 mmHg 72%
    16:00 +22°C° 0.7 mm 4 mps 649 mmHg 75%
    17:00 +21°C° 0.7 mm 4 mps 648 mmHg 78%
    18:00 +20°C° 0.1 mm 4 mps 648 mmHg 82%
    19:00 +19°C° 0.1 mm 4 mps 649 mmHg 87%
    20:00 +18°C° 0.1 mm 3 mps 649 mmHg 91%
    21:00 +18°C° 0.1 mm 3 mps 649 mmHg 92%
    22:00 +18°C° 0.1 mm 3 mps 650 mmHg 92%
    23:00 +18°C° 0.1 mm 3 mps 650 mmHg 93%

    Day after tomorrow, 20 April, Saturday

    Time Temperature Precipitation Wind Pressure Humidity
    00:00 +18°C° 0.1 mm 3 mps 650 mmHg 93%
    01:00 +18°C° 0.1 mm 3 mps 649 mmHg 94%
    02:00 +18°C° 0.1 mm 3 mps 649 mmHg 94%
    03:00 +18°C° 0.1 mm 3 mps 649 mmHg 94%
    04:00 +18°C° 0.1 mm 3 mps 649 mmHg 94%
    05:00 +18°C° 0.1 mm 3 mps 649 mmHg 94%
    06:00 +18°C° 0.3 mm 3 mps 649 mmHg 93%
    07:00 +18°C° 0.3 mm 3 mps 650 mmHg 92%
    08:00 +18°C° 0.3 mm 3 mps 650 mmHg 91%
    09:00 +20°C° 0.1 mm 3 mps 651 mmHg 85%
    10:00 +21°C° 0.1 mm 3 mps 651 mmHg 80%
    11:00 +22°C° 0.1 mm 3 mps 652 mmHg 74%
    12:00 +24°C° 0.9 mm 3 mps 651 mmHg 73%
    13:00 +23°C° 0.9 mm 4 mps 651 mmHg 72%
    14:00 +25°C° 0.9 mm 4 mps 650 mmHg 71%
    15:00 +23°C° 0.6 mm 4 mps 649 mmHg 74%
    16:00 +22°C° 0.6 mm 4 mps 649 mmHg 78%
    17:00 +21°C° 0.6 mm 4 mps 648 mmHg 81%
    18:00 +20°C° 0.2 mm 4 mps 648 mmHg 85%
    19:00 +19°C° 0.2 mm 3 mps 649 mmHg 89%
    20:00 +18°C° 0.2 mm 3 mps 649 mmHg 92%
    21:00 +18°C° 0.1 mm 3 mps 649 mmHg 93%
    22:00 +18°C° 0.1 mm 3 mps 650 mmHg 93%
    23:00 +18°C° 0.1 mm 3 mps 650 mmHg 93%

    21 April, Sunday

    Time Temperature Precipitation Wind Pressure Humidity
    00:00 +18°C° 0.1 mm 3 mps 650 mmHg 94%
    01:00 +18°C° 0.1 mm 3 mps 649 mmHg 94%
    02:00 +18°C° 0.1 mm 3 mps 649 mmHg 95%
    03:00 +18°C° 0.3 mm 3 mps 649 mmHg 94%
    04:00 +18°C° 0.3 mm 3 mps 649 mmHg 94%
    05:00 +18°C° 0.3 mm 3 mps 649 mmHg 93%
    06:00 +18°C° 0.4 mm 3 mps 649 mmHg 92%
    07:00 +18°C° 0.4 mm 3 mps 649 mmHg 92%
    08:00 +18°C° 0.4 mm 3 mps 650 mmHg 91%
    09:00 +19°C° 0.1 mm 3 mps 650 mmHg 87%
    10:00 +20°C° 0.1 mm 3 mps 651 mmHg 83%
    11:00 +21°C° 0.1 mm 3 mps 651 mmHg 79%
    12:00 +22°C° 0.5 mm 3 mps 650 mmHg 77%
    13:00 +22°C° 0.5 mm 3 mps 650 mmHg 74%
    14:00 +23°C° 0.5 mm 4 mps 649 mmHg 72%
    15:00 +23°C° 0.4 mm 4 mps 649 mmHg 74%
    16:00 +22°C° 0.4 mm 4 mps 648 mmHg 77%
    17:00 +21°C° 0.4 mm 4 mps 648 mmHg 79%
    18:00 +20°C° 0.1 mm 3 mps 648 mmHg 83%
    19:00 +19°C° 0.1 mm 3 mps 648 mmHg 87%
    20:00 +19°C° 0.1 mm 3 mps 648 mmHg 91%
    21:00 +18°C° 0.2 mm 3 mps 649 mmHg 92%
    22:00 +18°C° 0.2 mm 3 mps 649 mmHg 92%
    23:00 +18°C° 0.2 mm 3 mps 649 mmHg 93%

    22 April, Monday

    Time Temperature Precipitation Wind Pressure Humidity
    00:00 +18°C° 0.6 mm 3 mps 649 mmHg 93%
    01:00 +18°C° 0.6 mm 3 mps 648 mmHg 93%
    02:00 +18°C° 0.6 mm 3 mps 648 mmHg 93%
    03:00 +18°C° 0.2 mm 3 mps 648 mmHg 93%
    04:00 +18°C° 0.2 mm 3 mps 648 mmHg 94%
    05:00 +18°C° 0.2 mm 3 mps 648 mmHg 94%
    06:00 +18°C° 0.2 mm 3 mps 648 mmHg 93%
    07:00 +18°C° 0.2 mm 3 mps 649 mmHg 92%
    08:00 +18°C° 0.2 mm 3 mps 649 mmHg 91%
    09:00 +19°C° 0.2 mm 3 mps 649 mmHg 88%
    10:00 +19°C° 0.2 mm 3 mps 650 mmHg 86%
    11:00 +20°C° 0.2 mm 2 mps 650 mmHg 84%
    12:00 +21°C° 0.2 mm 3 mps 649 mmHg 81%
    13:00 +22°C° 0.2 mm 3 mps 649 mmHg 78%
    14:00 +24°C° 0.2 mm 3 mps 648 mmHg 75%
    15:00 +22°C° 0.2 mm 3 mps 648 mmHg 78%
    16:00 +21°C° 0.2 mm 3 mps 647 mmHg 80%
    17:00 +21°C° 0.2 mm 3 mps 647 mmHg 82%
    18:00 +20°C° 0.1 mm 3 mps 647 mmHg 86%
    19:00 +19°C° 0.1 mm 3 mps 648 mmHg 89%
    20:00 +19°C° 0.1 mm 2 mps 648 mmHg 92%
    21:00 +18°C° 0.1 mm 2 mps 648 mmHg 93%
    22:00 +18°C° 0.1 mm 2 mps 649 mmHg 93%
    23:00 +18°C° 0.1 mm 2 mps 649 mmHg 94%

    23 April, Tuesday

    Time Temperature Precipitation Wind Pressure Humidity
    00:00 +18°C° 0.1 mm 2 mps 648 mmHg 94%
    01:00 +18°C° 0.1 mm 2 mps 648 mmHg 94%
    02:00 +18°C° 0.1 mm 2 mps 648 mmHg 94%
    03:00 +18°C° 0.4 mm 2 mps 648 mmHg 94%
    04:00 +18°C° 0.4 mm 2 mps 648 mmHg 94%
    05:00 +18°C° 0.4 mm 2 mps 648 mmHg 93%
    06:00 +18°C° 0.6 mm 2 mps 648 mmHg 92%
    07:00 +18°C° 0.6 mm 2 mps 649 mmHg 91%
    08:00 +18°C° 0.6 mm 2 mps 649 mmHg 90%
    09:00 +20°C° 0.3 mm 2 mps 650 mmHg 85%
    10:00 +21°C° 0.3 mm 2 mps 650 mmHg 79%
    11:00 +24°C° 0.3 mm 3 mps 650 mmHg 74%
    12:00 +24°C° 0.7 mm 3 mps 650 mmHg 73%
    13:00 +25°C° 0.7 mm 3 mps 649 mmHg 72%
    14:00 +25°C° 0.7 mm 3 mps 649 mmHg 70%
    15:00 +24°C° 0.6 mm 3 mps 648 mmHg 74%
    16:00 +24°C° 0.6 mm 3 mps 648 mmHg 77%
    17:00 +23°C° 0.6 mm 2 mps 648 mmHg 81%
    18:00 +21°C° 1.2 mm 2 mps 648 mmHg 84%
    19:00 +20°C° 1.2 mm 2 mps 648 mmHg 88%
    20:00 +19°C° 1.2 mm 2 mps 649 mmHg 92%
    21:00 +19°C° 0.8 mm 2 mps 649 mmHg 92%
    22:00 +19°C° 0.8 mm 2 mps 649 mmHg 93%
    23:00 +19°C° 0.8 mm 2 mps 649 mmHg 94%
    Show more